Location: Baili�vre
(50.0696°N, 4.2409°E)
Time: 15:33:57
(UTC+00:00)

Meteor 1-11 Rocket - Pass Details

Date: 08 August 2020
Orbit: 832 x 915 km, 81.2° (Epoch: 18 September)

Event Time Altitude Azimuth Distance (km) Brightness Sun altitude
Exits shadow 22:09:15 38° 129° (SE) 1,298 4.2 -20.6°
Maximum altitude 22:10:39 45° 93° (E) 1,168 4.2 -20.7°
Drops below altitude 10° 22:16:04 10° 23° (NNE) 2,537 6.8 -21.1°
Sets 22:18:38 0° 17° (NNE) 3,494 7.7 -21.2°
